Edmond Cane Airport


Codes: NWWO/IOU
Name: Edmond Cane Airport
City: Ile Ouen
Country: New Caledonia
Elevation: 7 ft.

Photos at Edmond Cane Airport


   Photos courtesy of SpottingLog. You can add your own sightings and photos by signing up for a free trial today.



No photos found.

Weather at Edmond Cane Airport


Time (UTC)DescriptionTempratureWindCloud coverageVisibilityPressureHumidity
15-Apr-2024 18:00Broken Clouds24°C18 mph, E66%10000m1019hPa70%
15-Apr-2024 21:00Light Rain24°C18 mph, SE87%10000m1020hPa73%
16-Apr-2024 00:00Light Rain24°C20 mph, SE99%10000m1020hPa71%
16-Apr-2024 03:00Light Rain24°C18 mph, SE42%10000m1018hPa70%
16-Apr-2024 06:00Light Rain24°C18 mph, SE64%10000m1018hPa63%
16-Apr-2024 09:00Overcast Clouds24°C18 mph, SE99%10000m1020hPa63%
16-Apr-2024 12:00Overcast Clouds24°C16 mph, E85%10000m1020hPa63%
16-Apr-2024 15:00Light Rain24°C16 mph, E100%10000m1018hPa72%
16-Apr-2024 18:00Broken Clouds23°C16 mph, E76%10000m1018hPa77%
16-Apr-2024 21:00Light Rain24°C20 mph, SE100%10000m1020hPa75%
17-Apr-2024 00:00Light Rain24°C22 mph, E92%10000m1019hPa68%
17-Apr-2024 03:00Light Rain24°C20 mph, E74%10000m1017hPa68%
17-Apr-2024 06:00Overcast Clouds24°C18 mph, E88%10000m1017hPa70%
17-Apr-2024 09:00Light Rain24°C20 mph, E99%10000m1019hPa71%
17-Apr-2024 12:00Light Rain23°C18 mph, E99%10000m1018hPa75%
17-Apr-2024 15:00Light Rain24°C20 mph, E99%10000m1017hPa74%
17-Apr-2024 18:00Overcast Clouds24°C18 mph, E98%10000m1016hPa72%
17-Apr-2024 21:00Light Rain24°C18 mph, E97%10000m1017hPa74%
18-Apr-2024 00:00Overcast Clouds25°C18 mph, E92%10000m1017hPa68%
18-Apr-2024 03:00Overcast Clouds25°C18 mph, E89%10000m1015hPa71%
18-Apr-2024 06:00Overcast Clouds25°C16 mph, E88%10000m1015hPa74%
18-Apr-2024 09:00Broken Clouds25°C16 mph, NE71%10000m1016hPa78%
18-Apr-2024 12:00Overcast Clouds25°C13 mph, NE87%10000m1016hPa79%
18-Apr-2024 15:00Broken Clouds24°C13 mph, NE74%10000m1014hPa83%
18-Apr-2024 18:00Broken Clouds24°C13 mph, NE68%10000m1014hPa84%
18-Apr-2024 21:00Scattered Clouds25°C13 mph, NE42%10000m1015hPa83%
19-Apr-2024 00:00Broken Clouds26°C16 mph, NE53%10000m1015hPa79%
19-Apr-2024 03:00Overcast Clouds26°C18 mph, NE100%10000m1013hPa79%
19-Apr-2024 06:00Overcast Clouds25°C16 mph, NE100%10000m1013hPa82%
19-Apr-2024 09:00Overcast Clouds25°C16 mph, NE100%10000m1015hPa83%
19-Apr-2024 12:00Overcast Clouds25°C16 mph, NE100%10000m1015hPa83%
19-Apr-2024 15:00Overcast Clouds24°C13 mph, NE100%10000m1014hPa82%
19-Apr-2024 18:00Overcast Clouds24°C13 mph, NE100%10000m1014hPa83%
19-Apr-2024 21:00Overcast Clouds25°C11 mph, NE100%10000m1015hPa82%
20-Apr-2024 00:00Overcast Clouds26°C16 mph, NE100%10000m1014hPa77%
20-Apr-2024 03:00Overcast Clouds26°C16 mph, E100%10000m1012hPa78%
20-Apr-2024 06:00Overcast Clouds26°C13 mph, E100%10000m1012hPa83%
20-Apr-2024 09:00Overcast Clouds25°C13 mph, E100%10000m1013hPa88%
20-Apr-2024 12:00Overcast Clouds25°C13 mph, E100%10000m1012hPa89%
20-Apr-2024 15:00Light Rain25°C13 mph, E100%10000m1010hPa89%